Location: Antioch Baptist Church
(32.6696°N, 85.7327°W)
Time: 21:11:38
(UTC+00:00)

USA 186 - Pass Details

Date: 14 July 2020
Orbit: 262 x 435 km, 96.9° (Epoch: 12 August)

Event Time Altitude Azimuth Distance (km) Brightness Sun altitude
Rises 01:46:56 0° 185° (S) 2,396 5.3 -10.8°
Reaches altitude 10° 01:49:06 10° 194° (SSW) 1,517 4.4 -11.1°
Maximum altitude 01:52:05 34° 261° (W) 713 3.4 -11.6°
Drops below altitude 10° 01:55:01 10° 329° (NNW) 1,475 5.7 -12.1°
Sets 01:57:02 0° 339° (NNW) 2,295 6.5 -12.5°
